Miscellaneous Local Product
Issued by NWS North Platte, NE

Home | Current Version | Previous Version | Graphics & Text | Print | Product List | Glossary On
Versions: 1 2 3 4 5 6 7 8 9 10 11 12 13 14 15 16 17 18 19 20 21 22 23 24 25 26 27 28 29 30 31 32 33 34 35 36 37 38 39 40 41 42 43 44 45 46 47 48 49 50
000
AXUS43 KLBF 210510
MISLBF


WESTERN AND NORTH CENTRAL NEBRASKA HOURLY WEATHER ROUNDUP
NATIONAL WEATHER SERVICE NORTH PLATTE NE
1200 AM CDT SUN SEP 21 2014

***STATIONS NOT REPORTING VARIABLES SUCH AS SKY/WEATHER OR
PRESSURE ARE PROVIDED BY THE NEBRASKA DEPARTMENT OF
ROADS...RAWS...AND APRS NETWORKS...AND ARE NOT UNDER
NATIONAL WEATHER SERVICE QUALITY CONTROL***

...OBSERVATIONS IN AND NEAR THE EASTERN PANHANDLE OF NEBRASKA...

CITY           SKY/WX    TMP DP  RH WIND       PRES   REMARKS
PINE RIDGE     CLEAR     46  41  82 NE3       30.27R
CHADRON        CLEAR     49  42  77 SW6       30.28R
ALLIANCE       CLEAR     44  38  79 NW5       30.29R
SIDNEY         CLEAR     56  42  59 NE6       30.32R
WHITECLAY        N/A     42  37  83 E5          N/A
RUSHVILLE        N/A     47  38  72 W7          N/A
CRESCENT LAKE    N/A     55  40  57 MISG        N/A
LISCO            N/A     65  37  35 N7          N/A
BIG SPRINGS      N/A     57  49  75 CALM        N/A
$$

...OBSERVATIONS IN NORTH CENTRAL NEBRASKA...

CITY           SKY/WX    TMP DP  RH WIND       PRES   REMARKS
VALENTINE      CLEAR     52  41  66 W8        30.21R
THEDFORD       CLEAR     55  43  63 NW5       30.23R
AINSWORTH      CLEAR     53  42  68 W8        30.20R
O`NEILL        CLEAR     56  46  68 NW6       30.14S
ORD            CLEAR     55  46  71 NW6       30.15R
BROKEN BOW     CLEAR     58  44  60 N9        30.18R
SPRINGVIEW       N/A     53  46  77 CALM        N/A
ROSE             N/A     56  44  64 W5          N/A
NEWPORT          N/A     51  42  70 W7          N/A
COMSTOCK         N/A     63  45  52 CALM        N/A
$$

...OBSERVATIONS IN SOUTHWEST NEBRASKA AND FAR NORTHEAST COLORADO...

CITY           SKY/WX    TMP DP  RH WIND       PRES   REMARKS
WRAY           FAIR      63  47  56 NE6       30.27R
HOLYOKE        FAIR      59  46  63 N6        30.28R
IMPERIAL       CLEAR     60  47  61 N6        30.25R
OGALLALA       CLEAR     61  45  56 CALM      30.26R
NORTH PLATTE   CLEAR     60  43  53 CALM      30.22R
MCCOOK         CLEAR     59  51  75 N7        30.21R
LEXINGTON      CLEAR     56  49  75 CALM      30.20R
PAXTON           N/A     63  46  54 CALM        N/A
SUTHERLAND       N/A     56  41  58 CALM        N/A
BRADY            N/A     58  46  64 CALM        N/A
GOTHENBURG       N/A     65  44  47 CALM        N/A
CALLAWAY         N/A     62  47  59 N6          N/A
$$

...SOME WEATHER OBSERVATIONS FROM AROUND THE REGION...

CITY           SKY/WX    TMP DP  RH WIND       PRES   REMARKS
DENVER         CLOUDY    62  49  62 S8        30.32F
LARAMIE        PTCLDY    55  38  52 E17       30.40F
CHEYENNE       MOCLDY    58  39  49 NE7       30.38F
SCOTTSBLUFF    CLEAR     55  42  61 SE5       30.31R
RAPID CITY     CLEAR     55  39  54 N12       30.26R
PIERRE         CLEAR     52  43  71 NW9       30.14R
WINNER         FAIR      55  39  54 NW9       30.16R
SIOUX FALLS    CLEAR     57  47  69 W9        30.04S
OMAHA          CLEAR     64  54  69 N5        30.06R
GRAND ISLAND   CLEAR     61  48  62 NW6       30.15R
KANSAS CITY    CLEAR     70  67  90 W8        30.00R
WICHITA        CLOUDY    75  69  81 NE6       30.04R
HAYS           CLEAR     68  57  68 NE9       30.11R
LIBERAL        MOCLDY    77  63  61 E10       30.13R
GOODLAND       CLEAR     58  52  80 W5        30.23R HAZE
$$



USA.gov is the U.S. government's official web portal to all federal, state and local government web resources and services.